Dades meteomassalio
Diari Summary for Maig 31, 2017 Units:  Metric    English   Both
« Previous Day
Next Day »
Diari Semanal Mensual Anual Personalitzat
  Maxima: Minima: Mijana:
Temperatura: -17.8 °C -10.3 °C -6.2 °C
Rosada: -17.8 °C -12.1 °C -10.8 °C
Humitat: Humidity % 32 % 61 %
Velocitat del vent: 0 km/h 0 km/h 9.2 km/h
Racha vent: 0 km/h - -
Vent:- - SSE
Pressio: 0 hPa 34384.8 hPa -
Pluja: 0 mm    
Historical Graphs
 
 
Tabular Data for Maig 31, 2017
Time Temperature Dew Point Pressure Wind Wind Speed Wind Gust Humidity Rainfall Rate (Hourly) solar Conditions
-17.8 °C -17.8 °C 0 hPa Calm     Humidity % 0 mm SolarRadiationWatts/m^2 W/m2 Conditions
00:00 -7.8 °C -10.9 °C 34462.7 hPa Calm     70 % 0 mm 0.0 W/m2 CLR
00:05 -7.9 °C -10.9 °C 34462.7 hPa Calm     71 % 0 mm 0.0 W/m2 CLR
00:06 -8 °C -10.9 °C 34462.7 hPa Calm     71 % 0 mm 0.0 W/m2 CLR
00:11 -8.2 °C -11 °C 34462.7 hPa Calm     72 % 0 mm 0.0 W/m2 CLR
00:16 -8.3 °C -11 °C 34462.7 hPa Calm     73 % 0 mm 0.0 W/m2 CLR
00:21 -8.4 °C -11 °C 34462.7 hPa Calm     74 % 0 mm 0.0 W/m2 CLR
00:26 -8.5 °C -11.1 °C 34462.7 hPa Calm     74 % 0 mm 0.0 W/m2 CLR
00:31 -8.6 °C -11.1 °C 34462.7 hPa Calm     75 % 0 mm 0.0 W/m2 CLR
00:36 -8.6 °C -11.1 °C 34462.7 hPa Calm     75 % 0 mm 0.0 W/m2 CLR
00:41 -8.7 °C -11 °C 34462.7 hPa Calm     76 % 0 mm 0.0 W/m2 CLR
00:46 -8.7 °C -11.1 °C 34462.7 hPa Calm     76 % 0 mm 0.0 W/m2 CLR
00:51 -8.8 °C -11.3 °C 34462.7 hPa Calm     75 % 0 mm 0.0 W/m2 CLR
00:56 -8.9 °C -11.2 °C 34462.7 hPa Calm     77 % 0 mm 0.0 W/m2 CLR
01:01 -8.9 °C -11.2 °C 34462.7 hPa Calm     77 % 0 mm 0.0 W/m2 CLR
01:06 -9 °C -11.2 °C 34462.7 hPa Calm     77 % 0 mm 0.0 W/m2 CLR
01:11 -9 °C -11.3 °C 34462.7 hPa Calm     76 % 0 mm 0.0 W/m2 CLR
01:16 -8.9 °C -11.3 °C 34462.7 hPa Calm     76 % 0 mm 0.0 W/m2 CLR
01:21 -8.9 °C -11.3 °C 34462.7 hPa Calm     76 % 0 mm 0.0 W/m2 CLR
01:26 -8.9 °C -11.3 °C 34462.7 hPa Calm     76 % 0 mm 0.0 W/m2 CLR
01:31 -9 °C -11.2 °C 34462.7 hPa Calm     77 % 0 mm 0.0 W/m2 CLR
01:36 -9.1 °C -11.2 °C 34462.7 hPa Calm     78 % 0 mm 0.0 W/m2 CLR
01:41 -9.1 °C -11.3 °C 34462.7 hPa Calm     78 % 0 mm 0.0 W/m2 CLR
01:46 -9.2 °C -11.2 °C 34462.7 hPa Calm     79 % 0 mm 0.0 W/m2 CLR
01:51 -9.3 °C -11.3 °C 34462.7 hPa Calm     79 % 0 mm 0.0 W/m2 CLR
01:56 -9.3 °C -11.3 °C 34462.7 hPa Calm     79 % 0 mm 0.0 W/m2 CLR
02:01 -9.3 °C -11.3 °C 34462.7 hPa Calm     80 % 0 mm 0.0 W/m2 CLR
02:06 -9.4 °C -11.3 °C 34462.7 hPa Calm     80 % 0 mm 0.0 W/m2 CLR
02:11 -9.4 °C -11.3 °C 34462.7 hPa Calm     80 % 0 mm 0.0 W/m2 CLR
02:16 -9.4 °C -11.3 °C 34462.7 hPa Calm     80 % 0 mm 0.0 W/m2 CLR
02:21 -9.5 °C -11.4 °C 34462.7 hPa Calm     80 % 0 mm 0.0 W/m2 CLR
02:26 -9.6 °C -11.4 °C 34462.7 hPa Calm     81 % 0 mm 0.0 W/m2 CLR
02:31 -9.7 °C -11.4 °C 34462.7 hPa Calm     82 % 0 mm 0.0 W/m2 CLR
02:36 -9.8 °C -11.3 °C 34462.7 hPa Calm     83 % 0 mm 0.0 W/m2 CLR
02:41 -9.8 °C -11.4 °C 34462.7 hPa Calm     83 % 0 mm 0.0 W/m2 CLR
02:46 -9.9 °C -11.4 °C 34462.7 hPa Calm     83 % 0 mm 0.0 W/m2 CLR
02:51 -9.9 °C -11.5 °C 34462.7 hPa Calm     83 % 0 mm 0.0 W/m2 CLR
02:56 -9.9 °C -11.4 °C 34462.7 hPa Calm     84 % 0 mm 0.0 W/m2 CLR
03:01 -9.9 °C -11.3 °C 34462.7 hPa Calm     85 % 0 mm 0.0 W/m2 CLR
03:06 -9.9 °C -11.4 °C 34462.7 hPa Calm     84 % 0 mm 0.0 W/m2 CLR
03:11 -10 °C -11.5 °C 34462.7 hPa Calm     84 % 0 mm 0.0 W/m2 CLR
03:16 -10 °C -11.5 °C 34462.7 hPa Calm     84 % 0 mm 0.0 W/m2 CLR
03:21 -10.1 °C -11.5 °C 34462.7 hPa Calm     84 % 0 mm 0.0 W/m2 CLR
03:26 -10.1 °C -11.5 °C 34476.3 hPa Calm     84 % 0 mm 0.0 W/m2 CLR
03:31 -10.1 °C -11.6 °C 34476.3 hPa Calm     84 % 0 mm 0.0 W/m2 CLR
03:36 -10.1 °C -11.4 °C 34476.3 hPa Calm     85 % 0 mm 0.0 W/m2 CLR
03:41 -10.1 °C -11.5 °C 34476.3 hPa Calm     85 % 0 mm 0.0 W/m2 CLR
03:46 -10.1 °C -11.6 °C 34476.3 hPa Calm     84 % 0 mm 0.0 W/m2 CLR
03:51 -10.1 °C -11.6 °C 34476.3 hPa Calm     84 % 0 mm 0.0 W/m2 CLR
03:56 -10.1 °C -11.6 °C 34476.3 hPa Calm     84 % 0 mm 0.0 W/m2 CLR
04:01 -10.1 °C -11.6 °C 34476.3 hPa Calm     84 % 0 mm 0.0 W/m2 CLR
04:06 -10 °C -11.5 °C 34476.3 hPa Calm     84 % 0 mm 0.0 W/m2 CLR
04:11 -9.9 °C -11.4 °C 34476.3 hPa Calm     84 % 0 mm 0.0 W/m2 CLR
04:16 -9.9 °C -11.3 °C 34476.3 hPa Calm     84 % 0 mm 0.0 W/m2 CLR
04:21 -9.8 °C -11.3 °C 34476.3 hPa Calm     84 % 0 mm 0.0 W/m2 CLR
04:26 -9.8 °C -11.4 °C 34476.3 hPa Calm     83 % 0 mm 0.0 W/m2 CLR
04:31 -9.8 °C -11.4 °C 34476.3 hPa Calm     83 % 0 mm 0.0 W/m2 CLR
04:36 -9.8 °C -11.4 °C 34486.4 hPa Calm     83 % 0 mm 0.0 W/m2 CLR
04:41 -9.8 °C -11.3 °C 34486.4 hPa Calm     83 % 0 mm 0.0 W/m2 CLR
04:46 -9.8 °C -11.3 °C 34486.4 hPa Calm     83 % 0 mm 0.0 W/m2 CLR
04:51 -9.8 °C -11.3 °C 34486.4 hPa Calm     83 % 0 mm 0.0 W/m2 CLR
04:56 -9.8 °C -11.3 °C 34486.4 hPa Calm     83 % 0 mm 0.0 W/m2 CLR
05:01 -9.8 °C -11.3 °C 34486.4 hPa Calm     83 % 0 mm 0.0 W/m2 CLR
05:06 -9.7 °C -11.3 °C 34486.4 hPa Calm     83 % 0 mm 0.0 W/m2 CLR
05:11 -9.7 °C -11.2 °C 34486.4 hPa Calm     83 % 0 mm 0.0 W/m2 CLR
05:16 -9.6 °C -11.2 °C 34486.4 hPa Calm     83 % 0 mm 0.0 W/m2 CLR
05:21 -9.6 °C -11.2 °C 34486.4 hPa Calm     83 % 0 mm 0.0 W/m2 CLR
05:26 -9.6 °C -11.2 °C 34486.4 hPa Calm     83 % 0 mm 0.0 W/m2 CLR
05:31 -9.7 °C -11.2 °C 34486.4 hPa Calm     83 % 0 mm 0.0 W/m2 CLR
05:36 -9.7 °C -11.3 °C 34486.4 hPa Calm     83 % 0 mm 0.0 W/m2 CLR
05:41 -9.7 °C -11.2 °C 34486.4 hPa Calm     84 % 0 mm 0.0 W/m2 CLR
05:46 -9.7 °C -11.3 °C 34486.4 hPa Calm     83 % 0 mm 0.0 W/m2 CLR
05:51 -9.7 °C -11.3 °C 34486.4 hPa Calm     83 % 0 mm 0.0 W/m2 CLR
05:56 -9.8 °C -11.4 °C 34486.4 hPa Calm     82 % 0 mm 0.0 W/m2 CLR
06:01 -9.8 °C -11.6 °C 34486.4 hPa Calm     82 % 0 mm 0.0 W/m2 CLR
06:06 -9.9 °C -11.4 °C 34486.4 hPa Calm     83 % 0 mm 0.0 W/m2 CLR
06:11 -9.9 °C -11.4 °C 34486.4 hPa Calm     84 % 0 mm 0.0 W/m2 CLR
06:16 -9.9 °C -11.5 °C 34486.4 hPa Calm     83 % 0 mm 0.0 W/m2 CLR
06:21 -9.9 °C -11.6 °C 34486.4 hPa Calm     83 % 0 mm 0.0 W/m2 OVC
06:26 -10 °C -11.6 °C 34486.4 hPa Calm     83 % 0 mm 0.0 W/m2 OVC
06:31 -10 °C -11.5 °C 34496.6 hPa Calm     84 % 0 mm 0.0 W/m2 OVC
06:36 -10.1 °C -11.6 °C 34496.6 hPa Calm     84 % 0 mm 5.0 W/m2 OVC
06:41 -10.1 °C -11.6 °C 34496.6 hPa Calm     84 % 0 mm 7.0 W/m2 BKN
06:46 -10.2 °C -11.6 °C 34496.6 hPa Calm     85 % 0 mm 11.0 W/m2 BKN
06:51 -10.2 °C -11.6 °C 34496.6 hPa Calm     85 % 0 mm 16.0 W/m2 BKN
06:56 -10.3 °C -11.7 °C 34496.6 hPa Calm     85 % 0 mm 21.0 W/m2 BKN
07:01 -10.3 °C -11.6 °C 34496.6 hPa Calm     86 % 0 mm 26.0 W/m2 BKN
07:06 -10.3 °C -11.6 °C 34496.6 hPa Calm     86 % 0 mm 32.0 W/m2 BKN
07:11 -10.2 °C -11.5 °C 34496.6 hPa Calm     86 % 0 mm 44.0 W/m2 BKN
07:17 -10.2 °C -11.4 °C 34496.6 hPa Calm     86 % 0 mm 51.0 W/m2 SCT
07:22 -10.1 °C -11.3 °C 34510.1 hPa Calm     86 % 0 mm 58.0 W/m2 SCT
07:27 -9.9 °C -11.3 °C 34510.1 hPa Calm     85 % 0 mm 69.0 W/m2 FEW
07:32 -9.9 °C -11.3 °C 34510.1 hPa Calm     85 % 0 mm 81.0 W/m2 FEW
07:37 -9.8 °C -11.2 °C 34510.1 hPa Calm     85 % 0 mm 91.0 W/m2 FEW
07:42 -9.7 °C -11.1 °C 34510.1 hPa Calm     85 % 0 mm 107.0 W/m2 CLR
07:47 -9.6 °C -10.9 °C 34510.1 hPa Calm     85 % 0 mm 123.0 W/m2 CLR
07:52 -9.3 °C -10.8 °C 34510.1 hPa Calm     84 % 0 mm 139.0 W/m2 CLR
07:57 -9.1 °C -10.8 °C 34510.1 hPa Calm     82 % 0 mm 158.0 W/m2 CLR
08:02 -8.9 °C -10.8 °C 34510.1 hPa Calm     80 % 0 mm 172.0 W/m2 CLR
08:07 -8.8 °C -10.7 °C 34510.1 hPa Calm     80 % 0 mm 229.0 W/m2 CLR
08:12 -8.6 °C -10.6 °C 34510.1 hPa Calm     79 % 0 mm 255.0 W/m2 CLR
08:17 -8.2 °C -10.5 °C 34510.1 hPa Calm     77 % 0 mm 130.0 W/m2 CLR
08:22 -8 °C -10.6 °C 34520.3 hPa Calm     74 % 0 mm 127.0 W/m2 CLR
08:27 -7.9 °C -10.6 °C 34520.3 hPa Calm     73 % 0 mm 292.0 W/m2 CLR
08:32 -7.7 °C -10.5 °C 34520.3 hPa Calm     72 % 0 mm 218.0 W/m2 CLR
08:37 -7.6 °C -10.6 °C 34520.3 hPa Calm     71 % 0 mm 134.0 W/m2 CLR
08:42 -7.6 °C -10.6 °C 34520.3 hPa Calm     71 % 0 mm 121.0 W/m2 CLR
08:47 -7.6 °C -10.4 °C 34520.3 hPa SSW 10.3 km/h 10.3 km/h 72 % 0 mm 114.0 W/m2 CLR
08:52 -7.6 °C -10.3 °C 34520.3 hPa Calm     73 % 0 mm 316.0 W/m2 CLR
08:57 -7.3 °C -9.9 °C 34520.3 hPa WSW 9 km/h 9 km/h 74 % 0 mm 364.0 W/m2 CLR
09:02 -7.2 °C -9.9 °C 34520.3 hPa West 11.9 km/h 11.9 km/h 73 % 0 mm 403.0 W/m2 CLR
09:07 -7.1 °C -9.8 °C 34520.3 hPa Calm     73 % 0 mm 455.0 W/m2 CLR
09:12 -6.9 °C -9.8 °C 34520.3 hPa WSW 6 km/h 6 km/h 72 % 0 mm 504.0 W/m2 CLR
09:17 -6.7 °C -9.7 °C 34520.3 hPa West 9 km/h 9 km/h 71 % 0 mm 371.0 W/m2 CLR
09:22 -6.7 °C -9.7 °C 34520.3 hPa SW 6 km/h   71 % 0 mm 274.0 W/m2 CLR
09:27 -6.7 °C -9.8 °C 34520.3 hPa WSW 11.9 km/h 11.9 km/h 70 % 0 mm 251.0 W/m2 CLR
09:32 -6.7 °C -9.7 °C 34520.3 hPa WNW 15 km/h 15 km/h 71 % 0 mm 299.0 W/m2 CLR
09:37 -6.7 °C -9.7 °C 34520.3 hPa WNW 3.1 km/h   71 % 0 mm 269.0 W/m2 CLR
09:42 -6.7 °C -9.8 °C 34520.3 hPa WSW 10.3 km/h 10.3 km/h 70 % 0 mm 374.0 W/m2 CLR
09:47 -6.6 °C -9.7 °C 34520.3 hPa West 12.9 km/h 12.9 km/h 70 % 0 mm 294.0 W/m2 CLR
09:52 -6.6 °C -9.6 °C 34520.3 hPa NW 11.9 km/h 11.9 km/h 71 % 0 mm 522.0 W/m2 CLR
09:57 -6.4 °C -9.7 °C 34520.3 hPa West 20.9 km/h 20.9 km/h 69 % 0 mm 529.0 W/m2 CLR
10:02 -6.4 °C -9.7 °C 34520.3 hPa West 15 km/h 15 km/h 69 % 0 mm 538.0 W/m2 CLR
10:07 -6.3 °C -9.7 °C 34520.3 hPa WNW 18.2 km/h 18.2 km/h 68 % 0 mm 547.0 W/m2 CLR
10:12 -6.2 °C -9.6 °C 34510.1 hPa West 10.3 km/h 10.3 km/h 68 % 0 mm 555.0 W/m2 CLR
10:17 -6.1 °C -9.6 °C 34520.3 hPa WNW 10.3 km/h 10.3 km/h 67 % 0 mm 580.0 W/m2 CLR
10:22 -6 °C -9.7 °C 34520.3 hPa Calm     66 % 0 mm 596.0 W/m2 CLR
10:27 -5.8 °C -9.6 °C 34520.3 hPa SW 9 km/h 9 km/h 65 % 0 mm 570.0 W/m2 CLR
10:32 -5.7 °C -9.7 °C 34510.1 hPa WNW 9 km/h 9 km/h 64 % 0 mm 633.0 W/m2 CLR
10:37 -5.7 °C -9.6 °C 34520.3 hPa Calm     64 % 0 mm 638.0 W/m2 CLR
10:42 -5.4 °C -9.6 °C 34510.1 hPa SSW 9 km/h 9 km/h 63 % 0 mm 647.0 W/m2 CLR
10:47 -5.4 °C -9.7 °C 34510.1 hPa Calm     62 % 0 mm 691.0 W/m2 CLR
10:52 -5.2 °C -9.4 °C 34510.1 hPa Calm     62 % 0 mm 728.0 W/m2 CLR
10:57 -4.8 °C -9.4 °C 34510.1 hPa NNW 2.6 km/h 2.6 km/h 60 % 0 mm 682.0 W/m2 CLR
11:02 -4.8 °C -9.6 °C 34510.1 hPa Calm     58 % 0 mm 698.0 W/m2 CLR
11:07 -4.7 °C -9.4 °C 34510.1 hPa Calm     59 % 0 mm 687.0 W/m2 CLR
11:12 -4.5 °C -9.6 °C 34510.1 hPa Calm     57 % 0 mm 744.0 W/m2 CLR
11:17 -4.4 °C -9.4 °C 34510.1 hPa Calm   1 km/h 57 % 0 mm 752.0 W/m2 CLR
11:22 -4.3 °C -9.5 °C 34510.1 hPa NNE 12.9 km/h 12.9 km/h 56 % 0 mm 788.0 W/m2 CLR
11:27 -4.3 °C -9.7 °C 34510.1 hPa NNE 11.9 km/h 11.9 km/h 55 % 0 mm 846.0 W/m2 CLR
11:32 -4.4 °C -9.6 °C 34510.1 hPa Calm     56 % 0 mm 842.0 W/m2 CLR
11:37 -4.3 °C -9.8 °C 34496.6 hPa East 15 km/h 15 km/h 54 % 0 mm 860.0 W/m2 CLR
11:38 -4.3 °C -9.8 °C 34510.1 hPa East 15 km/h 15 km/h 54 % 0 mm 860.0 W/m2 CLR
11:43 -4.3 °C -9.8 °C 34510.1 hPa Calm     54 % 0 mm 907.0 W/m2 CLR
11:48 -4.3 °C -9.8 °C 34496.6 hPa Calm     54 % 0 mm 904.0 W/m2 CLR
11:53 -4.2 °C -9.6 °C 34496.6 hPa Calm     55 % 0 mm 854.0 W/m2 CLR
11:58 -4 °C -9.4 °C 34496.6 hPa Calm     55 % 0 mm 868.0 W/m2 CLR
12:03 -3.9 °C -9.4 °C 34496.6 hPa Calm     54 % 0 mm 860.0 W/m2 CLR
12:08 -3.8 °C -9.6 °C 34496.6 hPa Calm     53 % 0 mm 860.0 W/m2 CLR
12:13 -3.8 °C -10.1 °C 34496.6 hPa ENE 3.1 km/h 3.1 km/h 50 % 0 mm 849.0 W/m2 CLR
12:18 -3.7 °C -10.2 °C 34496.6 hPa NE 15 km/h 15 km/h 48 % 0 mm 851.0 W/m2 CLR
12:23 -3.7 °C -10.4 °C 34496.6 hPa ENE 15 km/h 15 km/h 47 % 0 mm 851.0 W/m2 CLR
12:28 -3.8 °C -10.3 °C 34486.4 hPa NE 6 km/h   48 % 0 mm 868.0 W/m2 CLR
12:33 -3.7 °C -10.4 °C 34486.4 hPa ENE 11.9 km/h 11.9 km/h 47 % 0 mm 904.0 W/m2 CLR
12:38 -3.6 °C -10.5 °C 34486.4 hPa NNE 9 km/h 9 km/h 46 % 0 mm 891.0 W/m2 CLR
12:43 -3.4 °C -10.4 °C 34486.4 hPa ENE 17.9 km/h   46 % 0 mm 889.0 W/m2 CLR
12:48 -3.4 °C -10.6 °C 34486.4 hPa NE 20.8 km/h 20.8 km/h 45 % 0 mm 954.0 W/m2 CLR
12:53 -3.3 °C -10.4 °C 34486.4 hPa NE 7.7 km/h 7.7 km/h 45 % 0 mm 947.0 W/m2 CLR
12:58 -3.2 °C -10.5 °C 34486.4 hPa NE 6 km/h   44 % 0 mm 995.0 W/m2 CLR
13:03 -3.1 °C -10.3 °C 34486.4 hPa NNE 2.6 km/h 2.6 km/h 45 % 0 mm 979.0 W/m2 CLR
13:08 -3 °C -10.2 °C 34476.3 hPa NE 26.9 km/h 26.9 km/h 45 % 0 mm 970.0 W/m2 CLR
13:13 -3.1 °C -10.3 °C 34476.3 hPa East 23.8 km/h 23.8 km/h 45 % 0 mm 935.0 W/m2 CLR
13:18 -3.1 °C -10.2 °C 34476.3 hPa Calm     45 % 0 mm 947.0 W/m2 CLR
13:23 -3.1 °C -10.2 °C 34476.3 hPa Calm     45 % 0 mm 977.0 W/m2 CLR
13:28 -2.9 °C -10.2 °C 34476.3 hPa NNE 23.8 km/h 23.8 km/h 44 % 0 mm 974.0 W/m2 CLR
13:33 -2.9 °C -10.3 °C 34476.3 hPa North 29.8 km/h 29.8 km/h 44 % 0 mm 949.0 W/m2 CLR
13:34 -2.9 °C -10.3 °C 34476.3 hPa NNW 17.9 km/h 17.9 km/h 44 % 0 mm 954.0 W/m2 CLR
13:39 -2.9 °C -10.4 °C 34462.7 hPa North 23.8 km/h 23.8 km/h 43 % 0 mm 977.0 W/m2 CLR
13:44 -2.8 °C -10.4 °C 34462.7 hPa North 11.9 km/h 11.9 km/h 43 % 0 mm 954.0 W/m2 CLR
13:49 -2.8 °C -10.6 °C 34462.7 hPa Calm     42 % 0 mm 316.0 W/m2 CLR
13:54 -2.8 °C -10.6 °C 34462.7 hPa ESE 7.7 km/h 7.7 km/h 42 % 0 mm 821.0 W/m2 CLR
13:59 -2.7 °C -10.5 °C 34452.6 hPa East 20.9 km/h 20.9 km/h 42 % 0 mm 942.0 W/m2 CLR
14:04 -2.4 °C -10.4 °C 34452.6 hPa NE 15 km/h 15 km/h 41 % 0 mm 963.0 W/m2 CLR
14:09 -2.3 °C -10.6 °C 34452.6 hPa Calm     40 % 0 mm 969.0 W/m2 CLR
14:14 -2.3 °C -10.6 °C 34452.6 hPa Calm     40 % 0 mm 954.0 W/m2 CLR
14:19 -2.3 °C -10.6 °C 34442.4 hPa Calm     40 % 0 mm 940.0 W/m2 CLR
14:24 -2.3 °C -10.8 °C 34442.4 hPa ENE 29.8 km/h 29.8 km/h 39 % 0 mm 788.0 W/m2 CLR
14:29 -2.3 °C -11 °C 34442.4 hPa NE 15.6 km/h 15.6 km/h 38 % 0 mm 1000.0 W/m2 CLR
14:34 -2.2 °C -10.9 °C 34442.4 hPa ENE 9 km/h 9 km/h 38 % 0 mm 997.0 W/m2 CLR
14:39 -2.2 °C -11.1 °C 34428.8 hPa SE 20.9 km/h 20.9 km/h 37 % 0 mm 336.0 W/m2 CLR
14:44 -2.3 °C -10.9 °C 34428.8 hPa NE 20.9 km/h 20.9 km/h 38 % 0 mm 977.0 W/m2 CLR
14:49 -2.1 °C -11.2 °C 34428.8 hPa NE 15.6 km/h 15.6 km/h 36 % 0 mm 1023.0 W/m2 CLR
14:54 -1.9 °C -11.3 °C 34428.8 hPa NE 29.8 km/h 29.8 km/h 35 % 0 mm 896.0 W/m2 CLR
14:55 -2 °C -11.4 °C 34428.8 hPa ENE 11.9 km/h 11.9 km/h 35 % 0 mm 896.0 W/m2 CLR
15:00 -2.1 °C -11.5 °C 34428.8 hPa ENE 20.9 km/h 20.9 km/h 35 % 0 mm 197.0 W/m2 CLR
15:05 -2.3 °C -11.4 °C 34418.7 hPa NE 11.9 km/h 11.9 km/h 36 % 0 mm 895.0 W/m2 CLR
15:10 -2.4 °C -11.7 °C 34418.7 hPa NE 32.8 km/h 32.8 km/h 35 % 0 mm 895.0 W/m2 CLR
15:15 -2.2 °C -11.6 °C 34418.7 hPa NNE 20.9 km/h 20.9 km/h 35 % 0 mm 942.0 W/m2 CLR
15:20 -2 °C -11.7 °C 34418.7 hPa NNE 9 km/h 9 km/h 34 % 0 mm 939.0 W/m2 CLR
15:25 -1.9 °C -11.6 °C 34418.7 hPa ESE 23.3 km/h 23.3 km/h 34 % 0 mm 220.0 W/m2 CLR
15:30 -2 °C -11.6 °C 34405.1 hPa SE 18.2 km/h 18.2 km/h 34 % 0 mm 944.0 W/m2 CLR
15:35 -2.1 °C -11.7 °C 34405.1 hPa SE 29.8 km/h 29.8 km/h 34 % 0 mm 925.0 W/m2 CLR
15:40 -2 °C -11.9 °C 34405.1 hPa SSW 23.8 km/h 23.8 km/h 33 % 0 mm 965.0 W/m2 CLR
15:45 -1.8 °C -11.7 °C 34405.1 hPa Calm     33 % 0 mm 984.0 W/m2 CLR
15:50 -1.6 °C -11.8 °C 34405.1 hPa SE 17.9 km/h 17.9 km/h 32 % 0 mm 965.0 W/m2 CLR
15:55 -1.9 °C -12.1 °C 34395 hPa East 23.8 km/h 23.8 km/h 32 % 0 mm 315.0 W/m2 CLR
16:00 -2.1 °C -12 °C 34395 hPa SSE 29.8 km/h 29.8 km/h 33 % 0 mm 960.0 W/m2 CLR
16:05 -2.3 °C -11.7 °C 34405.1 hPa SE 29.8 km/h 29.8 km/h 35 % 0 mm 392.0 W/m2 CLR
16:10 -2.4 °C -11.5 °C 34395 hPa SE 23.8 km/h 23.8 km/h 36 % 0 mm 485.0 W/m2 CLR
16:16 -2.3 °C -11.4 °C 34395 hPa SE 23.3 km/h 23.3 km/h 36 % 0 mm 867.0 W/m2 CLR
16:21 -2.1 °C -11.3 °C 34405.1 hPa ESE 46.7 km/h 46.7 km/h 36 % 0 mm 853.0 W/m2 CLR
16:26 -2.3 °C -11.2 °C 34395 hPa East 32.8 km/h 32.8 km/h 37 % 0 mm 858.0 W/m2 CLR
16:31 -2.2 °C -11.2 °C 34395 hPa ESE 29.8 km/h 29.8 km/h 37 % 0 mm 826.0 W/m2 CLR
16:36 -2.1 °C -11.3 °C 34395 hPa SE 23.8 km/h 23.8 km/h 36 % 0 mm 807.0 W/m2 CLR
16:41 -2.1 °C -11.3 °C 34395 hPa SE 23.8 km/h 23.8 km/h 36 % 0 mm 795.0 W/m2 CLR
16:46 -2.3 °C -11.2 °C 34395 hPa SSE 23.8 km/h 23.8 km/h 37 % 0 mm 793.0 W/m2 CLR
16:51 -2.6 °C -11.3 °C 34395 hPa SE 38.8 km/h 38.8 km/h 38 % 0 mm 206.0 W/m2 CLR
16:56 -2.8 °C -11.2 °C 34395 hPa South 36.2 km/h 36.2 km/h 39 % 0 mm 239.0 W/m2 CLR
17:01 -2.8 °C -11.2 °C 34384.8 hPa SSE 26.9 km/h 26.9 km/h 39 % 0 mm 262.0 W/m2 CLR
17:06 -3 °C -11.2 °C 34384.8 hPa SSE 50.7 km/h 50.7 km/h 40 % 0 mm 355.0 W/m2 CLR
17:11 -3 °C -11 °C 34395 hPa South 41.7 km/h 41.7 km/h 41 % 0 mm 700.0 W/m2 CLR
17:16 -2.9 °C -10.3 °C 34395 hPa SSW 41.7 km/h 41.7 km/h 44 % 0 mm 744.0 W/m2 CLR
17:21 -3.2 °C -10.9 °C 34395 hPa South 41.7 km/h 41.7 km/h 42 % 0 mm 701.0 W/m2 CLR
17:26 -3.2 °C -10.8 °C 34395 hPa South 50.7 km/h 50.7 km/h 43 % 0 mm 715.0 W/m2 CLR
17:31 -3.2 °C -10.7 °C 34395 hPa South 50.7 km/h 50.7 km/h 43 % 0 mm 724.0 W/m2 CLR
17:36 -3.3 °C -10.7 °C 34405.1 hPa South 50.7 km/h 50.7 km/h 44 % 0 mm 204.0 W/m2 CLR
17:41 -3.6 °C -11.1 °C 34405.1 hPa SSW 41.7 km/h 41.7 km/h 43 % 0 mm 195.0 W/m2 CLR
17:46 -3.7 °C -11 °C 34418.7 hPa SSW 53.6 km/h 53.6 km/h 44 % 0 mm 192.0 W/m2 CLR
17:51 -3.7 °C -11 °C 34418.7 hPa South 29.8 km/h 29.8 km/h 44 % 0 mm 176.0 W/m2 CLR
17:56 -3.7 °C -10.9 °C 34418.7 hPa South 29.8 km/h 29.8 km/h 44 % 0 mm 160.0 W/m2 CLR
18:01 -3.6 °C -10.9 °C 34418.7 hPa SSE 32.8 km/h 32.8 km/h 44 % 0 mm 156.0 W/m2 CLR
18:06 -3.7 °C -11 °C 34418.7 hPa SSW 32.8 km/h 32.8 km/h 44 % 0 mm 169.0 W/m2 CLR
18:11 -3.7 °C -11 °C 34418.7 hPa SE 29.8 km/h 29.8 km/h 44 % 0 mm 209.0 W/m2 CLR
18:16 -3.6 °C -10.9 °C 34418.7 hPa SSW 29.8 km/h 29.8 km/h 44 % 0 mm 473.0 W/m2 CLR
18:21 -3.6 °C -10.9 °C 34418.7 hPa South 35.7 km/h 35.7 km/h 44 % 0 mm 244.0 W/m2 CLR
18:26 -3.7 °C -10.8 °C 34418.7 hPa South 35.7 km/h 35.7 km/h 45 % 0 mm 457.0 W/m2 CLR
18:31 -3.8 °C -10.5 °C 34418.7 hPa South 29.8 km/h 29.8 km/h 47 % 0 mm 148.0 W/m2 CLR
18:36 -3.8 °C -10.6 °C 34428.8 hPa SSW 26.9 km/h 26.9 km/h 47 % 0 mm 88.0 W/m2 CLR
18:41 -4 °C -10.7 °C 34428.8 hPa SSE 20.9 km/h 20.9 km/h 47 % 0 mm 98.0 W/m2 CLR
18:46 -4.1 °C -10.7 °C 34418.7 hPa SSW 29.8 km/h 29.8 km/h 48 % 0 mm 162.0 W/m2 CLR
18:51 -4.2 °C -10.7 °C 34418.7 hPa SSW 32.8 km/h 32.8 km/h 48 % 0 mm 216.0 W/m2 CLR
18:56 -4.2 °C -10.7 °C 34428.8 hPa South 32.8 km/h 32.8 km/h 48 % 0 mm 171.0 W/m2 CLR
19:01 -4.3 °C -10.8 °C 34428.8 hPa SSE 29.8 km/h 29.8 km/h 48 % 0 mm 162.0 W/m2 CLR
19:06 -4.3 °C -10.8 °C 34428.8 hPa SSW 29.8 km/h 29.8 km/h 48 % 0 mm 127.0 W/m2 CLR
19:11 -4.3 °C -10.9 °C 34428.8 hPa SSW 38.8 km/h 38.8 km/h 48 % 0 mm 93.0 W/m2 CLR
19:16 -4.5 °C -10.8 °C 34428.8 hPa South 29.8 km/h 29.8 km/h 49 % 0 mm 70.0 W/m2 CLR
19:21 -4.6 °C -10.7 °C 34442.4 hPa South 32.8 km/h 32.8 km/h 50 % 0 mm 49.0 W/m2 FEW
19:26 -4.6 °C -10.8 °C 34442.4 hPa SSW 20.9 km/h 20.9 km/h 50 % 0 mm 46.0 W/m2 SCT
19:31 -4.7 °C -10.8 °C 34442.4 hPa South 20.9 km/h 20.9 km/h 50 % 0 mm 46.0 W/m2 SCT
19:36 -4.7 °C -10.6 °C 34442.4 hPa SSE 9 km/h 9 km/h 51 % 0 mm 44.0 W/m2 SCT
19:41 -4.7 °C -10.7 °C 34452.6 hPa SSW 11.9 km/h 11.9 km/h 51 % 0 mm 40.0 W/m2 BKN
19:46 -4.7 °C -10.5 °C 34452.6 hPa SSW 9 km/h 9 km/h 52 % 0 mm 33.0 W/m2 BKN
19:51 -4.8 °C -10.6 °C 34452.6 hPa WSW 9 km/h 9 km/h 52 % 0 mm 30.0 W/m2 BKN
19:56 -4.8 °C -10.4 °C 34452.6 hPa SSW 15 km/h 15 km/h 53 % 0 mm 28.0 W/m2 BKN
20:01 -4.8 °C -10.4 °C 34452.6 hPa South 15.6 km/h 15.6 km/h 53 % 0 mm 28.0 W/m2 BKN
20:06 -4.8 °C -10.2 °C 34452.6 hPa South 11.9 km/h 12.4 km/h 54 % 0 mm 35.0 W/m2 BKN
20:11 -4.8 °C -10.2 °C 34452.6 hPa South 15.6 km/h 15.6 km/h 54 % 0 mm 47.0 W/m2 BKN
20:16 -4.8 °C -10.1 °C 34442.4 hPa SSW 15 km/h 15 km/h 55 % 0 mm 62.0 W/m2 BKN
20:21 -4.8 °C -10.1 °C 34442.4 hPa SSW 11.9 km/h 11.9 km/h 55 % 0 mm 69.0 W/m2 SCT
20:26 -4.7 °C -10.1 °C 34442.4 hPa Calm     55 % 0 mm 95.0 W/m2 CLR
20:31 -4.7 °C -9.9 °C 34442.4 hPa Calm     56 % 0 mm 69.0 W/m2 FEW
20:36 -4.7 °C -9.9 °C 34428.8 hPa SSW 15.6 km/h 15.6 km/h 56 % 0 mm 62.0 W/m2 SCT
20:41 -4.7 °C -10.2 °C 34428.8 hPa South 20.9 km/h 20.9 km/h 54 % 0 mm 58.0 W/m2 SCT
20:46 -4.7 °C -10.2 °C 34418.7 hPa South 17.9 km/h 17.9 km/h 54 % 0 mm 56.0 W/m2 SCT
20:51 -4.7 °C -10.2 °C 34428.8 hPa South 20.9 km/h 20.9 km/h 54 % 0 mm 46.0 W/m2 SCT
20:56 -4.8 °C -10.4 °C 34428.8 hPa South 20.9 km/h 20.9 km/h 53 % 0 mm 37.0 W/m2 BKN
21:01 -4.8 °C -10.4 °C 34428.8 hPa South 15.6 km/h 15.6 km/h 53 % 0 mm 33.0 W/m2 BKN
21:07 -4.8 °C -10.4 °C 34428.8 hPa South 17.9 km/h 17.9 km/h 53 % 0 mm 26.0 W/m2 BKN
21:12 -4.8 °C -10.2 °C 34428.8 hPa SW 11.9 km/h 11.9 km/h 54 % 0 mm 16.0 W/m2 BKN
21:17 -4.8 °C -10.3 °C 34442.4 hPa SW 6 km/h 6.3 km/h 54 % 0 mm 9.0 W/m2 BKN
21:22 -4.9 °C -10.3 °C 34442.4 hPa SSW 11.9 km/h 11.9 km/h 54 % 0 mm 5.0 W/m2 OVC
21:27 -4.9 °C -10.2 °C 34442.4 hPa Calm     55 % 0 mm 0.0 W/m2 OVC
21:32 -4.9 °C -10.4 °C 34442.4 hPa Calm     54 % 0 mm 0.0 W/m2 OVC
21:37 -4.9 °C -10.2 °C 34442.4 hPa Calm     55 % 0 mm 0.0 W/m2 CLR
21:42 -4.9 °C -10.4 °C 34442.4 hPa Calm     54 % 0 mm 0.0 W/m2 CLR
21:47 -5.1 °C -10.5 °C 34452.6 hPa Calm     54 % 0 mm 0.0 W/m2 CLR
21:52 -5.1 °C -10.5 °C 34452.6 hPa Calm     54 % 0 mm 0.0 W/m2 CLR
21:57 -5.1 °C -10.5 °C 34452.6 hPa Calm     54 % 0 mm 0.0 W/m2 CLR
22:02 -5.1 °C -10.7 °C 34452.6 hPa Calm     53 % 0 mm 0.0 W/m2 CLR
22:07 -5.1 °C -10.7 °C 34452.6 hPa Calm     53 % 0 mm 0.0 W/m2 CLR
22:12 -5.2 °C -10.7 °C 34452.6 hPa Calm     53 % 0 mm 0.0 W/m2 CLR
22:17 -5.2 °C -10.7 °C 34452.6 hPa Calm     54 % 0 mm 0.0 W/m2 CLR
22:22 -5.3 °C -10.8 °C 34462.7 hPa Calm     54 % 0 mm 0.0 W/m2 CLR
22:27 -5.4 °C -10.7 °C 34462.7 hPa Calm     55 % 0 mm 0.0 W/m2 CLR
22:32 -5.6 °C -10.9 °C 34462.7 hPa Calm     54 % 0 mm 0.0 W/m2 CLR
22:33 -5.6 °C -11 °C 34462.7 hPa Calm     54 % 0 mm 0.0 W/m2 CLR
22:38 -5.7 °C -11.1 °C 34462.7 hPa Calm     54 % 0 mm 0.0 W/m2 CLR
22:43 -5.8 °C -11.2 °C 34476.3 hPa Calm     54 % 0 mm 0.0 W/m2 CLR
22:48 -5.8 °C -11.1 °C 34476.3 hPa Calm     55 % 0 mm 0.0 W/m2 CLR
22:53 -5.9 °C -11.1 °C 34476.3 hPa Calm     55 % 0 mm 0.0 W/m2 CLR
22:58 -5.9 °C -11.2 °C 34476.3 hPa Calm     55 % 0 mm 0.0 W/m2 CLR
23:03 -6 °C -11.1 °C 34476.3 hPa Calm     56 % 0 mm 0.0 W/m2 CLR
23:08 -6.1 °C -11.1 °C 34476.3 hPa Calm     56 % 0 mm 0.0 W/m2 CLR
23:13 -6.1 °C -11.2 °C 34476.3 hPa Calm     56 % 0 mm 0.0 W/m2 CLR
23:18 -6.1 °C -11 °C 34476.3 hPa Calm     57 % 0 mm 0.0 W/m2 CLR
23:23 -6.1 °C -10.9 °C 34476.3 hPa Calm     58 % 0 mm 0.0 W/m2 CLR
23:28 -6 °C -10.8 °C 34476.3 hPa Calm     58 % 0 mm 0.0 W/m2 CLR
23:33 -6.1 °C -11 °C 34476.3 hPa Calm     57 % 0 mm 0.0 W/m2 CLR
23:38 -6.3 °C -10.9 °C 34476.3 hPa Calm     59 % 0 mm 0.0 W/m2 CLR
23:43 -6.3 °C -10.8 °C 34476.3 hPa Calm     60 % 0 mm 0.0 W/m2 CLR
23:48 -6.3 °C -10.8 °C 34476.3 hPa Calm     60 % 0 mm 0.0 W/m2 CLR
23:53 -6.4 °C -10.8 °C 34476.3 hPa Calm     61 % 0 mm 0.0 W/m2 CLR
23:58 -6.5 °C -10.5 °C 34476.3 hPa Calm     63 % 0 mm 0.0 W/m2 CLR
Lo Temps de Massalio
Compliments of Weather Underground - 1.25 mb